Detroit Lakes, MN

3:59 AM CST on December 11, 2017 (GMT -0600)
Detroit Lakes

Weather History for KDTL - January, 2012

Change the Weather History Date:

Monday, January 30, 2012

  Actual Average Record
Temperature  
Mean Temperature 25 °F -  
Max Temperature 33 °F 17 °F 41 °F (1960)
Min Temperature 17 °F -3 °F -41 °F (1952)
Degree Days  
Heating Degree Days 40    
Moisture  
Dew Point 21 °F    
Average Humidity 86    
Maximum Humidity 93    
Minimum Humidity 69    
Precipitation  
Precipitation 0.00 in - - ()
Sea Level Pressure  
Sea Level Pressure 29.61 in    
Wind  
Wind Speed 12 mph (SE)    
Max Wind Speed 17 mph    
Max Gust Speed 23 mph    
Visibility 10 miles    
Events Rain    
Averages and records for this station are not official NWS values.
T = Trace of Precipitation, MM = Missing Value Source: NWS Daily Summary

Daily Weather History Graph

Daily Weather History Graph

Search for Another Location

Airport or City:

Trip Planner

Search our weather history database for the weather conditions in past years. The results will help you decide how hot, cold, wet, or windy it might be!

Date:

Astronomy

Jan. 30, 2012 Rise Set
Actual Time 7:51 AM CST 5:23 PM CST
Civil Twilight 7:18 AM CST 5:55 PM CST
Nautical Twilight 6:41 AM CST 6:32 PM CST
Astronomical Twilight 6:06 AM CST 7:08 PM CST
Moon 10:41 AM CST (1/30) 12:39 AM CST (1/30)
Length of Visible Light 10h 37m
Length of Day
9h 32m
Waxing Crescent, 46% of the Moon is Illuminated
Jan 30
Waxing Crescent
Jan 30
First Quarter
Feb 7
Full
Feb 14
Last Quarter
Feb 21
New

Hourly Weather History & Observations

Time (CST) Temp. Windchill Dew Point Humidity Pressure Visibility Wind Dir Wind Speed Gust Speed Precip Events Conditions
12:14 AM 17.6 °F 2.7 °F 15.8 °F 93% 29.75 in 10.0 mi SSE 16.1 mph - N/A   Scattered Clouds
12:33 AM 19.4 °F 5.0 °F 15.8 °F 86% 29.73 in 7.0 mi SE 16.1 mph 23.0 mph N/A   Scattered Clouds
12:53 AM 17.6 °F 2.2 °F 15.8 °F 93% 29.72 in 10.0 mi SE 17.3 mph - N/A   Clear
1:13 AM 19.4 °F 5.5 °F 15.8 °F 86% 29.71 in 10.0 mi SSE 15.0 mph - N/A   Clear
1:33 AM 19.4 °F 5.5 °F 15.8 °F 86% 29.70 in 10.0 mi SSE 15.0 mph - N/A   Scattered Clouds
1:53 AM 19.4 °F 7.2 °F 15.8 °F 86% 29.69 in 10.0 mi SE 11.5 mph - N/A   Clear
2:13 AM 19.4 °F 6.6 °F 15.8 °F 86% 29.69 in 10.0 mi SE 12.7 mph - N/A   Clear
2:33 AM 19.4 °F 5.5 °F 15.8 °F 86% 29.68 in 10.0 mi SE 15.0 mph - N/A   Clear
2:54 AM 17.6 °F 5.0 °F 14.0 °F 86% 29.66 in 10.0 mi SE 11.5 mph - N/A   Clear
3:13 AM 17.6 °F 3.7 °F 15.8 °F 93% 29.66 in 10.0 mi SE 13.8 mph - N/A   Clear
3:33 AM 17.6 °F 4.3 °F 14.0 °F 86% 29.65 in 10.0 mi SE 12.7 mph - N/A   Clear
3:54 AM 17.6 °F 3.7 °F 15.8 °F 93% 29.65 in 10.0 mi SSE 13.8 mph - N/A   Clear
4:13 AM 17.6 °F 4.3 °F 14.0 °F 86% 29.64 in 10.0 mi SE 12.7 mph - N/A   Clear
4:33 AM 17.6 °F 4.3 °F 14.0 °F 86% 29.63 in 10.0 mi SE 12.7 mph - N/A   Clear
4:54 AM 17.6 °F 5.0 °F 14.0 °F 86% 29.63 in 10.0 mi SE 11.5 mph - N/A   Clear
5:13 AM 17.6 °F 5.7 °F 15.8 °F 93% 29.63 in 10.0 mi SE 10.4 mph - N/A   Clear
5:34 AM 17.6 °F 4.3 °F 15.8 °F 93% 29.62 in 10.0 mi SE 12.7 mph - N/A   Clear
5:53 AM 17.6 °F 5.0 °F 15.8 °F 93% 29.61 in 10.0 mi SSE 11.5 mph - N/A   Clear
6:14 AM 17.6 °F 6.4 °F 15.8 °F 93% 29.62 in 10.0 mi SE 9.2 mph - N/A   Clear
6:33 AM 17.6 °F 5.0 °F 15.8 °F 93% 29.61 in 10.0 mi SE 11.5 mph - N/A   Clear
6:53 AM 19.4 °F 8.6 °F 15.8 °F 86% 29.61 in 10.0 mi SE 9.2 mph - N/A   Clear
7:14 AM 19.4 °F 7.2 °F 17.6 °F 93% 29.60 in 10.0 mi SE 11.5 mph - N/A   Clear
7:33 AM 19.4 °F 7.9 °F 17.6 °F 93% 29.60 in 10.0 mi SE 10.4 mph - N/A   Clear
7:53 AM 19.4 °F 7.2 °F 17.6 °F 93% 29.59 in 10.0 mi SE 11.5 mph - N/A   Clear
8:14 AM 19.4 °F 7.2 °F 17.6 °F 93% 29.59 in 10.0 mi SE 11.5 mph - N/A   Clear
8:33 AM 19.4 °F 8.6 °F 17.6 °F 93% 29.61 in 10.0 mi SE 9.2 mph - N/A   Clear
8:53 AM 19.4 °F 8.6 °F 17.6 °F 93% 29.60 in 10.0 mi SSE 9.2 mph - N/A   Clear
9:13 AM 19.4 °F 7.9 °F 17.6 °F 93% 29.59 in 10.0 mi SE 10.4 mph - N/A   Clear
9:33 AM 19.4 °F 8.6 °F 17.6 °F 93% 29.61 in 10.0 mi SE 9.2 mph - N/A   Clear
9:53 AM 21.2 °F 10.1 °F 17.6 °F 86% 29.61 in 10.0 mi SE 10.4 mph - N/A   Clear
10:14 AM 21.2 °F 13.6 °F 19.4 °F 93% 29.61 in 10.0 mi SE 5.8 mph - N/A   Clear
10:33 AM 23.0 °F 13.1 °F 19.4 °F 86% 29.60 in 10.0 mi SE 9.2 mph - N/A   Clear
10:54 AM 23.0 °F 13.1 °F 19.4 °F 86% 29.60 in 10.0 mi SE 9.2 mph - N/A   Clear
11:13 AM 24.8 °F 15.3 °F 19.4 °F 80% 29.59 in 10.0 mi SE 9.2 mph - N/A   Clear
11:33 AM 26.6 °F 18.2 °F 21.2 °F 80% 29.59 in 10.0 mi SSE 8.1 mph - N/A   Clear
11:53 AM 28.4 °F 21.2 °F 21.2 °F 74% 29.58 in 10.0 mi SE 6.9 mph - N/A   Clear
12:13 PM 28.4 °F 20.4 °F 23.0 °F 80% 29.59 in 10.0 mi SE 8.1 mph - N/A   Clear
12:34 PM 30.2 °F 23.4 °F 23.0 °F 75% 29.59 in 10.0 mi SE 6.9 mph - N/A   Clear
12:53 PM 30.2 °F 23.4 °F 23.0 °F 75% 29.59 in 10.0 mi SSE 6.9 mph - N/A   Clear
1:14 PM 32.0 °F 25.6 °F 23.0 °F 69% 29.58 in 10.0 mi SE 6.9 mph - N/A   Clear
1:33 PM 32.0 °F 24.8 °F 24.8 °F 75% 29.57 in 10.0 mi SSE 8.1 mph - N/A   Clear
2:14 PM 32.0 °F 24.8 °F 26.6 °F 80% 29.58 in 10.0 mi SSE 8.1 mph - N/A   Clear
2:33 PM 32.0 °F 25.6 °F 26.6 °F 80% 29.57 in 10.0 mi SE 6.9 mph - N/A   Clear
2:53 PM 32.0 °F 24.2 °F 26.6 °F 80% 29.58 in 10.0 mi SSE 9.2 mph - N/A   Clear
3:14 PM 32.0 °F 24.8 °F 26.6 °F 80% 29.59 in 10.0 mi SSE 8.1 mph - N/A   Clear
3:33 PM 32.0 °F 25.6 °F 26.6 °F 80% 29.59 in 10.0 mi SE 6.9 mph - N/A   Clear
3:53 PM 32.0 °F 25.6 °F 26.6 °F 80% 29.59 in 10.0 mi SE 6.9 mph - N/A   Clear
4:14 PM 33.8 °F 28.6 °F 26.6 °F 75% 29.59 in 10.0 mi ESE 5.8 mph - N/A   Light Drizzle
4:33 PM 33.8 °F 27.7 °F 28.4 °F 81% 29.59 in 10.0 mi SE 6.9 mph - N/A Rain Light Rain
4:53 PM 32.0 °F 26.4 °F 28.4 °F 87% 29.58 in 10.0 mi SE 5.8 mph - N/A   Clear
5:14 PM 32.0 °F 24.2 °F 28.4 °F 87% 29.59 in 10.0 mi SE 9.2 mph - N/A   Clear
5:33 PM 32.0 °F 24.8 °F 28.4 °F 87% 29.59 in 10.0 mi SSE 8.1 mph - N/A   Clear
5:54 PM 33.8 °F 26.4 °F 30.2 °F 87% 29.58 in 10.0 mi SSE 9.2 mph - N/A   Clear
6:33 PM 32.0 °F 24.2 °F 28.4 °F 87% 29.58 in 10.0 mi SE 9.2 mph - N/A   Clear
6:53 PM 32.0 °F 23.6 °F 28.4 °F 87% 29.59 in 10.0 mi SSE 10.4 mph - N/A   Clear
7:13 PM 32.0 °F 25.6 °F 28.4 °F 87% 29.60 in 10.0 mi SSE 6.9 mph - N/A   Clear
7:34 PM 32.0 °F 24.8 °F 28.4 °F 87% 29.58 in 10.0 mi SE 8.1 mph - N/A   Clear
7:53 PM 32.0 °F 23.0 °F 28.4 °F 87% 29.57 in 10.0 mi SE 11.5 mph - N/A   Clear
8:13 PM 32.0 °F 27.5 °F 28.4 °F 87% 29.59 in 10.0 mi SE 4.6 mph - N/A   Clear
8:33 PM 32.0 °F 25.6 °F 28.4 °F 87% 29.59 in 10.0 mi SE 6.9 mph - N/A   Clear
8:53 PM 32.0 °F 25.6 °F 28.4 °F 87% 29.57 in 10.0 mi SE 6.9 mph - N/A   Clear
9:13 PM 32.0 °F 26.4 °F 28.4 °F 87% 29.58 in 10.0 mi SE 5.8 mph - N/A   Clear
9:34 PM 32.0 °F - 28.4 °F 87% 29.59 in 10.0 mi Calm Calm - N/A   Clear
9:53 PM 32.0 °F 27.5 °F 30.2 °F 93% 29.58 in 10.0 mi ESE 4.6 mph - N/A   Clear
10:13 PM 32.0 °F 26.4 °F 30.2 °F 93% 29.56 in 10.0 mi SE 5.8 mph - N/A   Clear
10:33 PM 32.0 °F 25.6 °F 30.2 °F 93% 29.56 in 10.0 mi SE 6.9 mph - N/A   Clear
10:53 PM 32.0 °F 24.2 °F 30.2 °F 93% 29.54 in 10.0 mi SE 9.2 mph - N/A   Clear
11:14 PM 32.0 °F 23.6 °F 30.2 °F 93% 29.54 in 10.0 mi SSE 10.4 mph - N/A   Clear
11:33 PM 32.0 °F 22.5 °F 30.2 °F 93% 29.54 in 10.0 mi SSE 12.7 mph - N/A   Clear
11:53 PM 32.0 °F 24.2 °F 30.2 °F 93% 29.54 in 10.0 mi SSE 9.2 mph - N/A   Clear